TimePDT,TemperatureF,Dew PointF,Humidity,Sea Level PressureIn,VisibilityMPH,Wind Direction,Wind SpeedMPH,Gust SpeedMPH,PrecipitationIn,Events,Conditions,WindDirDegrees,DateUTC
12:53 AM,55.9,48.0,75,29.83,10.0,South,15.0,-,N/A,,Scattered Clouds,190,2013-09-23 07:53:00
1:53 AM,55.9,46.9,72,29.86,10.0,SSW,12.7,-,N/A,,Overcast,200,2013-09-23 08:53:00
2:53 AM,55.9,46.0,69,29.88,10.0,South,12.7,-,N/A,,Mostly Cloudy,190,2013-09-23 09:53:00
3:53 AM,55.9,46.9,72,29.88,10.0,SW,6.9,-,N/A,,Overcast,220,2013-09-23 10:53:00
4:53 AM,55.9,46.0,69,29.89,10.0,South,10.4,-,N/A,,Overcast,180,2013-09-23 11:53:00
5:53 AM,55.0,44.1,67,29.91,10.0,South,11.5,-,N/A,,Partly Cloudy,170,2013-09-23 12:53:00
6:53 AM,54.0,43.0,66,29.93,10.0,South,10.4,-,N/A,,Partly Cloudy,180,2013-09-23 13:53:00
7:53 AM,57.0,43.0,59,29.94,10.0,South,8.1,-,N/A,,Overcast,180,2013-09-23 14:53:00
8:53 AM,60.1,43.0,53,29.95,10.0,SSW,12.7,-,N/A,,Overcast,210,2013-09-23 15:53:00
9:53 AM,61.0,44.1,54,29.96,10.0,SSW,12.7,-,N/A,,Overcast,210,2013-09-23 16:53:00
10:53 AM,64.0,44.1,48,29.97,10.0,SW,9.2,-,N/A,,Mostly Cloudy,220,2013-09-23 17:53:00
11:53 AM,66.0,43.0,43,29.96,10.0,WSW,6.9,-,N/A,,Mostly Cloudy,240,2013-09-23 18:53:00
12:53 PM,66.9,43.0,42,29.95,10.0,West,12.7,-,N/A,,Mostly Cloudy,260,2013-09-23 19:53:00
1:53 PM,66.9,43.0,42,29.95,10.0,WSW,11.5,-,N/A,,Mostly Cloudy,250,2013-09-23 20:53:00
2:53 PM,68.0,43.0,40,29.95,10.0,West,11.5,-,N/A,,Mostly Cloudy,260,2013-09-23 21:53:00
3:53 PM,68.0,42.1,39,29.94,10.0,WSW,5.8,-,N/A,,Clear,240,2013-09-23 22:53:00
4:53 PM,66.0,44.1,45,29.94,10.0,West,12.7,-,N/A,,Scattered Clouds,280,2013-09-23 23:53:00
5:53 PM,64.0,44.1,48,29.94,10.0,WSW,9.2,-,N/A,,Scattered Clouds,250,2013-09-24 00:53:00
6:53 PM,62.1,46.9,58,29.94,10.0,South,4.6,-,0.00,,Mostly Cloudy,190,2013-09-24 01:53:00
7:53 PM,61.0,46.9,60,29.95,10.0,Calm,Calm,-,0.00,,Overcast,0,2013-09-24 02:53:00
8:53 PM,60.1,48.0,64,29.96,10.0,South,3.5,-,N/A,,Overcast,180,2013-09-24 03:53:00
9:53 PM,59.0,46.9,64,29.96,10.0,SSE,8.1,-,N/A,,Partly Cloudy,150,2013-09-24 04:53:00
10:53 PM,59.0,46.9,64,29.95,10.0,South,4.6,-,N/A,,Mostly Cloudy,180,2013-09-24 05:53:00
11:53 PM,57.0,48.9,74,29.94,9.0,SSE,5.8,-,0.01,Rain,Light Rain,160,2013-09-24 06:53:00